ヒル彗星

C/2008 J6 ( Hill )

English version
Home page
Updated on April 11, 2009

---------------------------------------------------------------------

・ プロフィール

発見日 2008年5月14日
発見光度 15.5等
発見者 R. E. Hill (Catalina Sky Survey)

・ 写真集

・ 軌道要素

The following orbital elements are taken from MPC 64496:

Epoch 2008 Apr. 4.0 TT = JDT 2454560.5
T 2008 Apr. 10.9435 TT                                  MPC
q   2.003504             (2000.0)            P               Q
z  -0.001133       Peri.   10.7034      +0.5797894      +0.5248916
 +/-0.000006       Node   298.1783      -0.7899908      +0.1749792
e   1.002271       Incl.   44.9873      -0.1993959      +0.8329893
From 363 observations 2008 May 14-Nov. 30, mean residual 0".6.

・ 星図

・ 光度変化

        m1 = 7.5 + 5 logΔ + 20.0 log r

---------------------------------------------------------------------

軌道要素はMPCのEphemerides and Orbital Elementsに掲載されたものです。
星図はステラナビゲータ Ver.8 (アストロアーツ) で作成したものです。
光度グラフはComet for Windowsで作成したものです。

---------------------------------------------------------------------

Copyright(C) Seiichi Yoshida (comet@aerith.net). All rights reserved.